,,Stat6,,Stat2,,Stat8,,Stat9,,Stat10,,Wind1,,Wind1,
time,status,PA1M_AVG,status,PR1M_SUM,status,RH1M_AVG,status,SR1M_AVG,status,TA1M_AVG,status,W1dAve1m,status,W1sAve1m,
2007-02-10, 07:00:02,VALID,917.85,VALID,0,VALID,92.4482,VALID,-0.0849042,VALID,20.2236,VALID,326,VALID,0.452753,
2007-02-10, 07:01:00,VALID,917.868,VALID,0,VALID,92.2358,VALID,-0.0679233,VALID,20.2529,VALID,328,VALID,0.51508,
2007-02-10, 07:02:00,VALID,917.881,VALID,0,VALID,91.9472,VALID,-0.0169808,VALID,20.2102,VALID,47,VALID,0.839134,
2007-02-10, 07:03:00,VALID,917.889,VALID,0,VALID,92.6631,VALID,-0.0169808,VALID,20.1752,VALID,78,VALID,0.516555,
2007-02-10, 07:04:00,VALID,917.884,VALID,0,VALID,93.0522,VALID,0,VALID,20.1618,VALID,86,VALID,0.162287,
2007-02-10, 07:05:00,VALID,917.854,VALID,0,VALID,93.1705,VALID,0,VALID,20.1588,VALID,86,VALID,0.213034,
2007-02-10, 07:06:00,VALID,917.842,VALID,0,VALID,93.2175,VALID,-0.0509425,VALID,20.1203,VALID,72,VALID,0.56978,
2007-02-10, 07:07:00,VALID,917.795,VALID,0,VALID,93.2735,VALID,-0.0169808,VALID,20.0496,VALID,64,VALID,0.872332,
2007-02-10, 07:08:00,VALID,917.756,VALID,0,VALID,94.0771,VALID,-0.0339617,VALID,20.0004,VALID,109,VALID,1.10902,
2007-02-10, 07:09:00,VALID,917.793,VALID,0,VALID,94.1699,VALID,-0.0169808,VALID,20.0007,VALID,112,VALID,0.448103,
2007-02-10, 07:10:00,VALID,917.814,VALID,0,VALID,93.8915,VALID,0,VALID,19.9423,VALID,337,VALID,1.02214,
2007-02-10, 07:11:00,VALID,917.805,VALID,0,VALID,94.5451,VALID,-0.0169808,VALID,19.9043,VALID,347,VALID,0.597284,
2007-02-10, 07:12:00,VALID,917.81,VALID,0,VALID,94.4942,VALID,0,VALID,19.8616,VALID,294,VALID,0.397693,
2007-02-10, 07:13:00,VALID,917.816,VALID,0,VALID,94.6557,VALID,0.0169808,VALID,19.8194,VALID,187,VALID,0.645139,
2007-02-10, 07:14:00,VALID,917.812,VALID,0,VALID,94.5959,VALID,-0.101885,VALID,19.8145,VALID,94,VALID,0.734003,
2007-02-10, 07:15:00,VALID,917.813,VALID,0,VALID,94.8185,VALID,-0.101885,VALID,19.8145,VALID,86,VALID,0.621189,
2007-02-10, 07:16:00,VALID,917.796,VALID,0,VALID,94.7574,VALID,-0.101885,VALID,19.8306,VALID,83,VALID,0.159702,
2007-02-10, 07:17:00,VALID,917.762,VALID,0,VALID,94.5858,VALID,-0.118866,VALID,19.8601,VALID,83,VALID,0.0579579,
2007-02-10, 07:18:00,VALID,917.758,VALID,0,VALID,94.4777,VALID,-0.101885,VALID,19.886,VALID,106,VALID,0.436198,
2007-02-10, 07:19:00,VALID,917.745,VALID,0,VALID,93.8266,VALID,-0.101885,VALID,19.8827,VALID,110,VALID,0.0125363,
2007-02-10, 07:20:00,VALID,917.761,VALID,0,VALID,93.4718,VALID,-0.101885,VALID,19.7693,VALID,109,VALID,0.256669,
2007-02-10, 07:21:00,VALID,917.757,VALID,0,VALID,93.9627,VALID,-0.101885,VALID,19.695,VALID,106,VALID,0.190874,
2007-02-10, 07:22:00,VALID,917.736,VALID,0,VALID,94.4052,VALID,-0.152827,VALID,19.6345,VALID,79,VALID,0.764881,
2007-02-10, 07:23:00,VALID,917.741,VALID,0,VALID,95.1275,VALID,-0.118866,VALID,19.6081,VALID,89,VALID,0.564499,
2007-02-10, 07:24:00,VALID,917.769,VALID,0,VALID,95.4161,VALID,-0.101885,VALID,19.6603,VALID,56,VALID,1.03497,
2007-02-10, 07:25:00,VALID,917.789,VALID,0,VALID,94.9164,VALID,-0.118866,VALID,19.6372,VALID,43,VALID,0.23331,
2007-02-10, 07:26:00,VALID,917.809,VALID,0,VALID,95.2114,VALID,-0.135847,VALID,19.5915,VALID,56,VALID,0.482195,
2007-02-10, 07:27:00,VALID,917.795,VALID,0,VALID,95.3754,VALID,-0.135847,VALID,19.6146,VALID,53,VALID,1.07088,
2007-02-10, 07:28:00,VALID,917.768,VALID,0,VALID,95.4085,VALID,-0.101885,VALID,19.6144,VALID,65,VALID,1.7779,
2007-02-10, 07:29:00,VALID,917.758,VALID,0,VALID,96.0824,VALID,0,VALID,19.7231,VALID,71,VALID,1.86291,
2007-02-10, 07:30:00,VALID,917.728,VALID,0,VALID,95.6679,VALID,-0.0169808,VALID,19.8778,VALID,86,VALID,1.17664,
2007-02-10, 07:31:00,VALID,917.738,VALID,0,VALID,95.0791,VALID,0,VALID,20.0262,VALID,82,VALID,0.821646,
2007-02-10, 07:32:00,VALID,917.752,VALID,0,VALID,94.4472,VALID,-0.0169808,VALID,20.1489,VALID,110,VALID,0.763477,
2007-02-10, 07:33:00,VALID,917.767,VALID,0,VALID,93.9411,VALID,0,VALID,20.2134,VALID,99,VALID,0.622523,
2007-02-10, 07:34:00,VALID,917.759,VALID,0,VALID,93.599,VALID,0,VALID,20.2879,VALID,126,VALID,0.442522,
2007-02-10, 07:35:00,VALID,917.745,VALID,0,VALID,93.3053,VALID,-0.0339617,VALID,20.3267,VALID,126,VALID,0.620066,
2007-02-10, 07:36:00,VALID,917.749,VALID,0,VALID,92.9696,VALID,-0.0169808,VALID,20.3555,VALID,104,VALID,1.10017,
2007-02-10, 07:37:00,VALID,917.757,VALID,0,VALID,92.6466,VALID,-0.0169808,VALID,20.3651,VALID,96,VALID,1.23819,
2007-02-10, 07:38:00,VALID,917.782,VALID,0,VALID,92.5054,VALID,0,VALID,20.3686,VALID,101,VALID,1.29097,
2007-02-10, 07:39:00,VALID,917.781,VALID,0,VALID,92.5372,VALID,0,VALID,20.3716,VALID,86,VALID,1.35774,
2007-02-10, 07:40:00,VALID,917.776,VALID,0,VALID,92.3821,VALID,-0.0169808,VALID,20.3842,VALID,104,VALID,0.770167,
2007-02-10, 07:41:00,VALID,917.764,VALID,0,VALID,92.3783,VALID,0,VALID,20.3979,VALID,120,VALID,0.778525,
2007-02-10, 07:42:00,VALID,917.764,VALID,0,VALID,92.4711,VALID,0,VALID,20.4138,VALID,127,VALID,0.957304,
2007-02-10, 07:43:00,VALID,917.791,VALID,0,VALID,92.4215,VALID,0,VALID,20.3904,VALID,118,VALID,1.02325,
2007-02-10, 07:44:00,VALID,917.816,VALID,0,VALID,92.5817,VALID,0,VALID,20.3651,VALID,109,VALID,0.883789,
2007-02-10, 07:45:00,VALID,917.847,VALID,0,VALID,92.6949,VALID,-0.0169808,VALID,20.349,VALID,102,VALID,1.02474,
2007-02-10, 07:46:00,VALID,917.853,VALID,0,VALID,92.7114,VALID,0,VALID,20.303,VALID,118,VALID,0.398242,
2007-02-10, 07:47:00,VALID,917.832,VALID,0,VALID,92.9365,VALID,0,VALID,20.2941,VALID,127,VALID,0.837358,
2007-02-10, 07:48:00,VALID,917.813,VALID,0,VALID,93.0764,VALID,-0.0339617,VALID,20.3006,VALID,127,VALID,0.816134,
2007-02-10, 07:49:00,VALID,917.829,VALID,0,VALID,93.0395,VALID,-0.0169808,VALID,20.2976,VALID,145,VALID,0.429865,
2007-02-10, 07:50:00,VALID,917.85,VALID,0,VALID,92.9174,VALID,-0.0169808,VALID,20.2941,VALID,117,VALID,0.212305,
2007-02-10, 07:51:00,VALID,917.845,VALID,0,VALID,92.85,VALID,-0.0169808,VALID,20.2648,VALID,61,VALID,0.124814,
2007-02-10, 07:52:00,VALID,917.844,VALID,0,VALID,92.9683,VALID,0.0169808,VALID,20.239,VALID,61,VALID,0.241319,
2007-02-10, 07:53:00,VALID,917.849,VALID,0,VALID,93.1832,VALID,0,VALID,20.2258,VALID,61,VALID,0.238889,
2007-02-10, 07:54:00,VALID,917.848,VALID,0,VALID,93.2913,VALID,-0.0339617,VALID,20.2097,VALID,46,VALID,0.608817,
2007-02-10, 07:55:00,VALID,917.852,VALID,0,VALID,93.482,VALID,-0.0169808,VALID,20.1876,VALID,19,VALID,1.09914,
2007-02-10, 07:56:00,VALID,917.869,VALID,0,VALID,93.763,VALID,-0.0169808,VALID,20.1459,VALID,343,VALID,0.940905,
2007-02-10, 07:57:00,VALID,917.849,VALID,0,VALID,94.1788,VALID,-0.0339617,VALID,20.1032,VALID,333,VALID,0.586509,
2007-02-10, 07:58:00,VALID,917.822,VALID,0,VALID,94.1661,VALID,-0.0169808,VALID,20.1295,VALID,41,VALID,0.653343,
2007-02-10, 07:59:00,VALID,917.813,VALID,0,VALID,94.1827,VALID,-0.0339617,VALID,20.1874,VALID,100,VALID,0.541493,
2007-02-10, 08:00:00,VALID,917.824,VALID,0,VALID,93.7516,VALID,-0.0339617,VALID,20.2971,VALID,31,VALID,0.398947,
2007-02-10, 08:01:00,VALID,917.855,VALID,0,VALID,93.3053,VALID,-0.0169808,VALID,20.3358,VALID,18,VALID,1.15785,
2007-02-10, 08:02:00,VALID,917.87,VALID,0,VALID,93.1005,VALID,-0.0339617,VALID,20.4071,VALID,350,VALID,0.37609,
2007-02-10, 08:03:00,VALID,917.892,VALID,0,VALID,92.6339,VALID,-0.0169808,VALID,20.4555,VALID,29,VALID,0.803977,
2007-02-10, 08:04:00,VALID,917.873,VALID,0,VALID,92.7381,VALID,-0.0169808,VALID,20.4744,VALID,63,VALID,1.90272,
2007-02-10, 08:05:00,VALID,917.841,VALID,0,VALID,92.7241,VALID,-0.0339617,VALID,20.5193,VALID,29,VALID,1.81059,
2007-02-10, 08:06:00,VALID,917.811,VALID,0,VALID,92.541,VALID,-0.0169808,VALID,20.5981,VALID,347,VALID,2.212,
2007-02-10, 08:07:00,VALID,917.818,VALID,0,VALID,92.1913,VALID,-0.0169808,VALID,20.6258,VALID,23,VALID,2.67917,
2007-02-10, 08:08:00,VALID,917.843,VALID,0,VALID,91.9281,VALID,0,VALID,20.6777,VALID,61,VALID,1.88077,
2007-02-10, 08:09:00,VALID,917.825,VALID,0,VALID,91.7615,VALID,-0.0169808,VALID,20.7065,VALID,75,VALID,1.63819,
2007-02-10, 08:10:00,VALID,917.829,VALID,0,VALID,91.6979,VALID,0,VALID,20.7229,VALID,71,VALID,1.45759,
2007-02-10, 08:11:00,VALID,917.836,VALID,0,VALID,91.6395,VALID,0,VALID,20.7194,VALID,53,VALID,1.7965,
2007-02-10, 08:12:00,VALID,917.856,VALID,0,VALID,91.5263,VALID,-0.0169808,VALID,20.7431,VALID,38,VALID,1.23945,
2007-02-10, 08:13:00,VALID,917.865,VALID,0,VALID,91.6852,VALID,0,VALID,20.6934,VALID,48,VALID,1.19436,
2007-02-10, 08:14:00,VALID,917.861,VALID,0,VALID,91.8989,VALID,0,VALID,20.6417,VALID,44,VALID,1.02539,
2007-02-10, 08:15:00,VALID,917.852,VALID,0,VALID,92.0642,VALID,0,VALID,20.6229,VALID,38,VALID,0.794444,
2007-02-10, 08:16:00,VALID,917.835,VALID,0,VALID,92.1392,VALID,-0.0169808,VALID,20.6129,VALID,29,VALID,1.04115,
2007-02-10, 08:17:00,VALID,917.808,VALID,0,VALID,92.2168,VALID,0,VALID,20.6032,VALID,27,VALID,1.31357,
2007-02-10, 08:18:00,VALID,917.764,VALID,0,VALID,92.1125,VALID,0,VALID,20.6229,VALID,42,VALID,0.545277,
2007-02-10, 08:19:00,VALID,917.756,VALID,0,VALID,92.1634,VALID,0,VALID,20.6094,VALID,22,VALID,1.01036,
2007-02-10, 08:20:00,VALID,917.798,VALID,0,VALID,91.9841,VALID,0.0169808,VALID,20.6159,VALID,33,VALID,1.31359,
2007-02-10, 08:21:00,VALID,917.797,VALID,0,VALID,91.9713,VALID,0,VALID,20.599,VALID,17,VALID,0.445871,
2007-02-10, 08:22:00,VALID,917.774,VALID,0,VALID,92.0133,VALID,0,VALID,20.6189,VALID,23,VALID,0.877663,
2007-02-10, 08:23:00,VALID,917.715,VALID,0,VALID,92.0832,VALID,0,VALID,20.6159,VALID,57,VALID,2.41127,
2007-02-10, 08:24:00,VALID,917.693,VALID,0,VALID,92.0057,VALID,0,VALID,20.6452,VALID,39,VALID,1.46768,
2007-02-10, 08:25:00,VALID,917.674,VALID,0,VALID,91.8467,VALID,0,VALID,20.6509,VALID,19,VALID,1.68248,
2007-02-10, 08:26:00,VALID,917.654,VALID,0,VALID,91.9828,VALID,-0.0169808,VALID,20.6223,VALID,73,VALID,1.131,
2007-02-10, 08:27:00,VALID,917.629,VALID,0,VALID,92.143,VALID,-0.0169808,VALID,20.6129,VALID,60,VALID,0.785065,
2007-02-10, 08:28:01,VALID,917.628,VALID,0,VALID,92.1799,VALID,-0.0339617,VALID,20.6035,VALID,35,VALID,0.894159,
2007-02-10, 08:29:00,VALID,917.636,VALID,0,VALID,92.157,VALID,-0.101885,VALID,20.6083,VALID,69,VALID,2.03764,
2007-02-10, 08:30:00,VALID,917.658,VALID,0,VALID,92.0693,VALID,-0.118866,VALID,20.6209,VALID,66,VALID,1.23658,
2007-02-10, 08:31:00,VALID,917.652,VALID,0,VALID,91.8785,VALID,-0.101885,VALID,20.6559,VALID,49,VALID,0.536258,
2007-02-10, 08:32:00,VALID,917.665,VALID,0,VALID,91.7704,VALID,-0.0849042,VALID,20.6693,VALID,82,VALID,0.461846,
2007-02-10, 08:33:00,VALID,917.699,VALID,0,VALID,91.8035,VALID,-0.101885,VALID,20.6492,VALID,114,VALID,0.564135,
2007-02-10, 08:34:00,VALID,917.739,VALID,0,VALID,91.8849,VALID,-0.0849042,VALID,20.6656,VALID,112,VALID,1.00053,
2007-02-10, 08:35:00,VALID,917.748,VALID,0,VALID,91.8785,VALID,-0.101885,VALID,20.6425,VALID,125,VALID,1.10618,
2007-02-10, 08:36:00,VALID,917.768,VALID,0,VALID,91.9497,VALID,-0.101885,VALID,20.604,VALID,98,VALID,1.03198,
2007-02-10, 08:37:00,VALID,917.756,VALID,0,VALID,92.1405,VALID,-0.118866,VALID,20.5529,VALID,111,VALID,1.04706,
2007-02-10, 08:38:00,VALID,917.742,VALID,0,VALID,92.3427,VALID,-0.101885,VALID,20.4759,VALID,76,VALID,1.27271,
2007-02-10, 08:39:01,VALID,917.77,VALID,0,VALID,92.6567,VALID,-0.0849042,VALID,20.3845,VALID,73,VALID,1.47385,
2007-02-10, 08:40:00,VALID,917.76,VALID,0,VALID,93.1934,VALID,-0.118866,VALID,20.3363,VALID,113,VALID,1.30927,
2007-02-10, 08:41:00,VALID,917.779,VALID,0,VALID,93.3866,VALID,-0.118866,VALID,20.3463,VALID,89,VALID,0.800195,
2007-02-10, 08:42:00,VALID,917.788,VALID,0,VALID,93.4998,VALID,-0.118866,VALID,20.3177,VALID,99,VALID,1.40243,
2007-02-10, 08:43:00,VALID,917.788,VALID,0,VALID,93.6117,VALID,-0.118866,VALID,20.3205,VALID,90,VALID,1.27871,
2007-02-10, 08:44:00,VALID,917.804,VALID,0,VALID,93.5685,VALID,0.0169808,VALID,20.3125,VALID,73,VALID,0.69186,
2007-02-10, 08:45:00,VALID,917.813,VALID,0,VALID,93.613,VALID,-0.0169808,VALID,20.2901,VALID,84,VALID,1.10828,
2007-02-10, 08:46:00,VALID,917.805,VALID,0,VALID,93.7414,VALID,0,VALID,20.2909,VALID,77,VALID,1.02925,
2007-02-10, 08:47:00,VALID,917.77,VALID,0,VALID,93.749,VALID,0,VALID,20.2874,VALID,120,VALID,1.30414,
2007-02-10, 08:48:01,VALID,917.776,VALID,0,VALID,93.5176,VALID,0,VALID,20.2837,VALID,88,VALID,1.11052,
2007-02-10, 08:49:00,VALID,917.774,VALID,0,VALID,93.1908,VALID,0,VALID,20.2832,VALID,80,VALID,1.03237,
2007-02-10, 08:50:00,VALID,917.75,VALID,0,VALID,92.9416,VALID,0,VALID,20.3582,VALID,83,VALID,0.895597,
2007-02-10, 08:51:01,VALID,917.755,VALID,0,VALID,92.6211,VALID,-0.0169808,VALID,20.4028,VALID,122,VALID,0.447917,
2007-02-10, 08:52:00,VALID,917.767,VALID,0,VALID,92.4647,VALID,0,VALID,20.4575,VALID,129,VALID,0.664444,
2007-02-10, 08:53:01,VALID,917.77,VALID,0,VALID,92.3757,VALID,0.0169808,VALID,20.4768,VALID,101,VALID,0.595109,
2007-02-10, 08:54:00,VALID,917.763,VALID,0,VALID,92.3185,VALID,0.0509425,VALID,20.4965,VALID,130,VALID,1.52882,
2007-02-10, 08:55:00,VALID,917.77,VALID,0,VALID,91.7666,VALID,0.0169808,VALID,20.5384,VALID,142,VALID,1.12271,
2007-02-10, 08:56:00,VALID,917.76,VALID,0,VALID,91.67,VALID,0.0169808,VALID,20.5836,VALID,144,VALID,0.719815,
2007-02-10, 08:57:00,VALID,917.8,VALID,0,VALID,91.6662,VALID,0.0509425,VALID,20.5997,VALID,121,VALID,0.604911,
2007-02-10, 08:58:01,VALID,917.818,VALID,0,VALID,91.7412,VALID,0,VALID,20.5771,VALID,121,VALID,0.204688,
2007-02-10, 08:59:00,VALID,917.83,VALID,0,VALID,91.8378,VALID,0,VALID,20.5416,VALID,121,VALID,0.0272569,
2007-02-10, 09:00:00,VALID,917.847,VALID,0,VALID,91.9968,VALID,0,VALID,20.5061,VALID,150,VALID,0.365513,
2007-02-10, 09:01:00,VALID,917.874,VALID,0,VALID,92.0807,VALID,-0.0169808,VALID,20.4642,VALID,164,VALID,0.415206,
2007-02-10, 09:02:00,VALID,917.867,VALID,0,VALID,92.3821,VALID,0.0169808,VALID,20.4344,VALID,171,VALID,0.773819,
2007-02-10, 09:03:01,VALID,917.849,VALID,0,VALID,92.6656,VALID,0,VALID,20.4389,VALID,171,VALID,0.858103,
2007-02-10, 09:04:01,VALID,917.849,VALID,0,VALID,92.7953,VALID,0.0169808,VALID,20.4185,VALID,110,VALID,0.567224,
2007-02-10, 09:05:00,VALID,917.828,VALID,0,VALID,92.8526,VALID,0.0169808,VALID,20.415,VALID,125,VALID,0.598028,
2007-02-10, 09:06:00,VALID,917.774,VALID,0,VALID,92.9212,VALID,0,VALID,20.4158,VALID,154,VALID,0.875781,
2007-02-10, 09:07:00,VALID,917.772,VALID,0,VALID,92.9975,VALID,0,VALID,20.3795,VALID,178,VALID,0.480373,
2007-02-10, 09:08:00,VALID,917.793,VALID,0,VALID,93.0764,VALID,0,VALID,20.3571,VALID,139,VALID,0.411882,
2007-02-10, 09:09:00,VALID,917.803,VALID,0,VALID,93.159,VALID,0.0339617,VALID,20.3025,VALID,86,VALID,0.248365,
2007-02-10, 09:10:01,VALID,917.828,VALID,0,VALID,93.5138,VALID,-0.0169808,VALID,20.238,VALID,5,VALID,0.727325,
2007-02-10, 09:11:01,VALID,917.833,VALID,0,VALID,94.0123,VALID,0.0169808,VALID,20.2218,VALID,347,VALID,0.289063,
2007-02-10, 09:12:01,VALID,917.83,VALID,0,VALID,93.9843,VALID,-0.0169808,VALID,20.2161,VALID,319,VALID,0.369735,
2007-02-10, 09:13:00,VALID,917.79,VALID,0,VALID,94.0631,VALID,-0.0169808,VALID,20.2318,VALID,185,VALID,1.24447,
2007-02-10, 09:14:00,VALID,917.802,VALID,0,VALID,94.0224,VALID,0.0169808,VALID,20.2509,VALID,175,VALID,1.48854,
2007-02-10, 09:15:00,VALID,917.804,VALID,0,VALID,93.8775,VALID,0.0169808,VALID,20.2837,VALID,201,VALID,1.64729,
2007-02-10, 09:16:00,VALID,917.809,VALID,0,VALID,93.3167,VALID,0,VALID,20.3413,VALID,165,VALID,1.27852,
2007-02-10, 09:17:00,VALID,917.808,VALID,0,VALID,93.1361,VALID,0.0169808,VALID,20.4418,VALID,142,VALID,1.51639,
2007-02-10, 09:18:00,VALID,917.809,VALID,0,VALID,92.616,VALID,0,VALID,20.4863,VALID,147,VALID,1.74777,
2007-02-10, 09:19:00,VALID,917.812,VALID,0,VALID,91.9548,VALID,0.0169808,VALID,20.5317,VALID,143,VALID,1.18788,
2007-02-10, 09:20:00,VALID,917.814,VALID,0,VALID,92.1239,VALID,0,VALID,20.5769,VALID,144,VALID,0.632254,
2007-02-10, 09:21:01,VALID,917.848,VALID,0,VALID,92.2028,VALID,0,VALID,20.5349,VALID,144,VALID,0.394354,
2007-02-10, 09:22:00,VALID,917.874,VALID,0,VALID,92.2753,VALID,0,VALID,20.4577,VALID,250,VALID,0.797385,
2007-02-10, 09:23:00,VALID,917.888,VALID,0,VALID,92.4368,VALID,0.0169808,VALID,20.3765,VALID,255,VALID,0.799782,
2007-02-10, 09:24:00,VALID,917.92,VALID,0,VALID,92.7559,VALID,0,VALID,20.3058,VALID,186,VALID,0.772507,
2007-02-10, 09:25:01,VALID,917.943,VALID,0,VALID,93.2213,VALID,0.0169808,VALID,20.2703,VALID,194,VALID,0.715972,
2007-02-10, 09:26:00,VALID,917.962,VALID,0,VALID,93.3192,VALID,0.0169808,VALID,20.2928,VALID,191,VALID,0.459821,
2007-02-10, 09:27:00,VALID,917.991,VALID,0,VALID,93.1845,VALID,0,VALID,20.3216,VALID,167,VALID,0.637463,
2007-02-10, 09:28:00,VALID,918.018,VALID,0,VALID,92.7864,VALID,0,VALID,20.3475,VALID,131,VALID,0.946911,
2007-02-10, 09:29:00,VALID,918.023,VALID,0,VALID,92.3516,VALID,0.0339617,VALID,20.3894,VALID,120,VALID,0.851199,
2007-02-10, 09:30:00,VALID,918.055,VALID,0,VALID,91.9815,VALID,0.101885,VALID,20.4085,VALID,121,VALID,0.643714,
2007-02-10, 09:31:00,VALID,918.059,VALID,0,VALID,91.7628,VALID,0.0679233,VALID,20.4314,VALID,79,VALID,0.355469,
2007-02-10, 09:32:00,VALID,918.067,VALID,0,VALID,91.7259,VALID,0.0509425,VALID,20.4309,VALID,83,VALID,0.383557,
2007-02-10, 09:33:00,VALID,918.063,VALID,0,VALID,91.6814,VALID,0.0509425,VALID,20.4115,VALID,76,VALID,0.8837,
2007-02-10, 09:34:00,VALID,918.071,VALID,0,VALID,91.7882,VALID,0.0339617,VALID,20.3599,VALID,80,VALID,0.550071,
2007-02-10, 09:35:00,VALID,918.074,VALID,0,VALID,91.9396,VALID,0.0169808,VALID,20.3117,VALID,67,VALID,0.534801,
2007-02-10, 09:36:00,VALID,918.066,VALID,0,VALID,92.026,VALID,0.0339617,VALID,20.2737,VALID,65,VALID,0.123365,
2007-02-10, 09:37:00,VALID,918.071,VALID,0,VALID,92.2638,VALID,0.0509425,VALID,20.1995,VALID,55,VALID,0.360069,
2007-02-10, 09:38:00,VALID,918.055,VALID,0,VALID,92.7203,VALID,0.0339617,VALID,20.1084,VALID,18,VALID,0.839571,
2007-02-10, 09:39:00,VALID,918.049,VALID,0,VALID,93.0395,VALID,0.0339617,VALID,20.0408,VALID,37,VALID,0.561738,
2007-02-10, 09:40:00,VALID,918.061,VALID,0,VALID,93.2544,VALID,0.0169808,VALID,20.0056,VALID,54,VALID,1.05305,
2007-02-10, 09:41:00,VALID,918.06,VALID,0,VALID,93.173,VALID,0.0339617,VALID,20.0446,VALID,70,VALID,0.968555,
2007-02-10, 09:42:01,VALID,918.059,VALID,0,VALID,92.8271,VALID,0.0169808,VALID,20.1029,VALID,74,VALID,1.45494,
2007-02-10, 09:43:01,VALID,918.056,VALID,0,VALID,92.4037,VALID,0.0169808,VALID,20.1861,VALID,86,VALID,0.56622,
2007-02-10, 09:44:00,VALID,918.034,VALID,0,VALID,91.9612,VALID,0.0169808,VALID,20.3055,VALID,107,VALID,0.94707,
2007-02-10, 09:45:00,VALID,918.038,VALID,0,VALID,91.3381,VALID,0.0169808,VALID,20.4187,VALID,108,VALID,0.815341,
2007-02-10, 09:46:01,VALID,918.057,VALID,0,VALID,90.7519,VALID,0,VALID,20.529,VALID,117,VALID,0.415838,
2007-02-10, 09:47:00,VALID,918.075,VALID,0,VALID,90.3106,VALID,0,VALID,20.5839,VALID,117,VALID,0.0660156,
2007-02-10, 09:48:00,VALID,918.119,VALID,0,VALID,90.0945,VALID,0.0169808,VALID,20.5709,VALID,93,VALID,0.534412,
2007-02-10, 09:49:00,VALID,918.145,VALID,0,VALID,90.1186,VALID,0.0169808,VALID,20.5357,VALID,68,VALID,0.856771,
2007-02-10, 10:37:00,VALID,918.915,VALID,0,VALID,86.3903,VALID,226.083,VALID,21.4127,VALID,324,VALID,2.6044,
2007-02-10, 10:38:00,VALID,918.881,VALID,0,VALID,85.7913,VALID,178.112,VALID,21.4257,VALID,317,VALID,2.68586,
2007-02-10, 10:39:00,VALID,918.877,VALID,0,VALID,85.2967,VALID,216.574,VALID,21.4959,VALID,324,VALID,2.26353,
2007-02-10, 11:06:00,VALID,918.988,VALID,0,VALID,86.9976,VALID,160.143,VALID,21.3491,VALID,303,VALID,2.30469,
2007-02-10, 11:07:00,VALID,918.969,VALID,0,VALID,86.0317,VALID,133.062,VALID,21.3977,VALID,300,VALID,2.8968,
2007-02-10, 11:08:00,VALID,918.982,VALID,0,VALID,85.8511,VALID,140.856,VALID,21.5144,VALID,318,VALID,1.61198,
2007-02-10, 11:09:00,VALID,918.977,VALID,0,VALID,85.8537,VALID,122.737,VALID,21.575,VALID,334,VALID,1.48289,
2007-02-10, 11:10:00,VALID,918.969,VALID,0,VALID,85.4264,VALID,97.6737,VALID,21.6148,VALID,359,VALID,2.16684,
2007-02-10, 11:11:00,VALID,918.944,VALID,0,VALID,84.4625,VALID,207.828,VALID,21.5949,VALID,354,VALID,3.60405,
2007-02-10, 11:12:00,VALID,918.924,VALID,0,VALID,84.8682,VALID,283.495,VALID,21.6753,VALID,346,VALID,2.61367,
2007-02-10, 11:13:00,VALID,918.907,VALID,0,VALID,84.6901,VALID,285.872,VALID,21.734,VALID,334,VALID,3.22161,
2007-02-10, 11:14:00,VALID,918.87,VALID,0,VALID,84.7385,VALID,365.309,VALID,21.8047,VALID,356,VALID,2.59253,
2007-02-10, 11:15:00,VALID,918.844,VALID,0,VALID,84.4523,VALID,298.489,VALID,21.9081,VALID,321,VALID,2.58507,
2007-02-10, 11:16:00,VALID,918.845,VALID,0,VALID,83.7822,VALID,266.905,VALID,22.0014,VALID,314,VALID,2.72483,
2007-02-10, 11:17:00,VALID,918.837,VALID,0,VALID,83.2787,VALID,195.738,VALID,22.0727,VALID,339,VALID,2.69496,
2007-02-10, 11:18:00,VALID,918.849,VALID,0,VALID,83.9818,VALID,120.598,VALID,22.1021,VALID,303,VALID,2.52896,
2007-02-10, 11:19:00,VALID,918.88,VALID,0,VALID,83.5381,VALID,192.053,VALID,22.0722,VALID,331,VALID,2.06432,
2007-02-10, 11:20:00,VALID,918.878,VALID,0,VALID,83.4401,VALID,290.525,VALID,22.0918,VALID,343,VALID,2.27429,
2007-02-10, 11:21:00,VALID,918.853,VALID,0,VALID,83.4656,VALID,297.844,VALID,22.1335,VALID,332,VALID,2.63481,
2007-02-10, 11:22:00,VALID,918.858,VALID,0,VALID,83.1591,VALID,131.55,VALID,22.1559,VALID,350,VALID,3.03761,
2007-02-10, 11:23:00,VALID,918.87,VALID,0,VALID,82.6441,VALID,212.057,VALID,22.1139,VALID,351,VALID,3.14044,
2007-02-10, 11:24:00,VALID,918.867,VALID,0,VALID,82.4839,VALID,325.472,VALID,22.0942,VALID,1,VALID,3.60211,
2007-02-10, 11:25:00,VALID,918.914,VALID,0,VALID,82.8082,VALID,331.177,VALID,22.1166,VALID,345,VALID,3.20827,
2007-02-10, 11:26:00,VALID,918.942,VALID,0,VALID,82.2677,VALID,181.084,VALID,22.14,VALID,360,VALID,3.41146,
2007-02-10, 11:27:00,VALID,918.963,VALID,0,VALID,82.6251,VALID,218.798,VALID,22.0999,VALID,348,VALID,3.61083,
2007-02-10, 11:28:00,VALID,918.955,VALID,0,VALID,81.6688,VALID,407.081,VALID,22.1004,VALID,358,VALID,3.62391,
2007-02-10, 11:29:00,VALID,918.963,VALID,0,VALID,82.3377,VALID,247.869,VALID,22.2035,VALID,346,VALID,2.11701,
2007-02-10, 11:30:00,VALID,918.967,VALID,0,VALID,81.3865,VALID,184.955,VALID,22.2299,VALID,331,VALID,3.33067,
2007-02-10, 11:31:00,VALID,918.943,VALID,0,VALID,81.2352,VALID,139.922,VALID,22.2134,VALID,344,VALID,3.2474,
2007-02-10, 11:32:00,VALID,918.981,VALID,0,VALID,81.4781,VALID,211.615,VALID,22.1911,VALID,347,VALID,3.18197,
2007-02-10, 11:33:00,VALID,918.971,VALID,0,VALID,82.2296,VALID,171.948,VALID,22.1615,VALID,322,VALID,3.33327,
2007-02-10, 11:34:00,VALID,919.001,VALID,0,VALID,81.74,VALID,123.451,VALID,22.1163,VALID,353,VALID,2.79074,
2007-02-10, 11:35:00,VALID,919.003,VALID,0,VALID,81.9308,VALID,135.762,VALID,22.0714,VALID,344,VALID,3.52548,
2007-02-10, 11:36:00,VALID,918.992,VALID,0,VALID,82.6403,VALID,156.241,VALID,22.0259,VALID,343,VALID,2.56523,
2007-02-10, 11:37:00,VALID,919.004,VALID,0,VALID,82.9722,VALID,178.553,VALID,21.9971,VALID,344,VALID,2.01817,
2007-02-10, 11:38:00,VALID,918.994,VALID,0,VALID,81.9308,VALID,447.717,VALID,22.0288,VALID,356,VALID,3.77644,
2007-02-10, 11:39:00,VALID,918.995,VALID,0,VALID,82.1062,VALID,569.503,VALID,22.1289,VALID,17,VALID,2.81612,
2007-02-10, 11:40:00,VALID,918.984,VALID,0,VALID,81.8506,VALID,356.886,VALID,22.2963,VALID,358,VALID,3.0565,
2007-02-10, 11:41:00,VALID,918.967,VALID,0,VALID,81.2237,VALID,392.07,VALID,22.3832,VALID,335,VALID,3.02534,
2007-02-10, 11:42:00,VALID,918.948,VALID,0,VALID,80.7507,VALID,246.29,VALID,22.4254,VALID,335,VALID,3.49909,
2007-02-10, 11:43:00,VALID,918.967,VALID,0,VALID,80.8702,VALID,217.304,VALID,22.4445,VALID,353,VALID,1.78398,
2007-02-10, 11:44:00,VALID,918.97,VALID,0,VALID,79.9038,VALID,255.341,VALID,22.4383,VALID,20,VALID,3.66233,
2007-02-10, 11:45:00,VALID,919.01,VALID,0,VALID,80.5663,VALID,233.69,VALID,22.4284,VALID,350,VALID,2.50949,
2007-02-10, 11:46:00,VALID,919.035,VALID,0,VALID,81.0572,VALID,326.881,VALID,22.4416,VALID,355,VALID,2.29222,
2007-02-10, 11:47:00,VALID,919.055,VALID,0,VALID,80.0717,VALID,298.88,VALID,22.4345,VALID,358,VALID,3.57333,